Home   Weather   Concord   Past weeks

Flag for USA Past Weather in Concord, California, USA — Yesterday and Last 2 Weeks

Now
39 °F

Sunny.


Feels Like: 37 °F
Forecast: 41 / 62 °F
Wind: 3 mph from Southeast

Location: Buchanan Field

Current Time: Dec 4, 2016 at 8:27:01 am

Latest Report: Dec 4, 2016 at 7:53 am


Visibility: 10 mi

Pressure: 30.16 "Hg

Humidity: 86%

Dew Point: 35 °F

Location of ConcordLocation

Past Weather in Concord — Graph

°F

Concord Temperature Yesterday

Maximum temperature yesterday: 63 °F (at 1:53 pm)
Minimum temperature yesterday: 39 °F (at 5:53 am)
Average temperature yesterday: 50 °F

High & Low Weather Summary for the Past Weeks

 TemperatureHumidityPressure
High63 °F (Nov 19, 8:53 am)96% (Nov 20, 4:02 am)30.34 "Hg (Nov 20, 4:02 am)
Low38 °F (Nov 24, 6:53 am)25% (Dec 2, 11:53 am)29.77 "Hg (Nov 26, 4:53 am)
Average51 °F71%30.06 "Hg
* Reported Nov 19 6:53 am — Dec 4 6:53 am, Concord, Weather by CustomWeather, © 2016

Note: Actual official high and low records may vary slightly from our data, if they occured in-between our weather recording intervals... More about our weather records

Advertising

Concord Weather History for the Previous 24 Hours

Scroll right to see more
 ConditionsComfort  
Time TempWeatherWind HumidityBarometerVisibility
6:53 am
Sun, Dec 4
38 °FClear.No wind83%30.15 "Hg10 mi
5:53 am39 °FClear.3 mph82%30.13 "Hg10 mi
4:53 am38 °FClear.No wind86%30.13 "Hg10 mi
3:53 am40 °FClear.No wind83%30.14 "Hg10 mi
2:53 am41 °FClear.No wind80%30.14 "Hg10 mi
1:53 am42 °FClear.3 mph79%30.14 "Hg10 mi
12:53 am43 °FClear.No wind76%30.15 "Hg10 mi
11:53 pm
Sat, Dec 3
43 °FClear.3 mph79%30.16 "Hg10 mi
10:53 pm45 °FClear.3 mph74%30.16 "Hg8 mi
9:53 pm45 °FClear.No wind74%30.15 "Hg10 mi
8:53 pm47 °FClear.3 mph71%30.14 "Hg10 mi
7:53 pm48 °FClear.No wind71%30.15 "Hg10 mi
6:53 pm50 °FClear.No wind66%30.14 "Hg9 mi
5:53 pm53 °FClear.No wind56%30.14 "Hg10 mi
4:53 pm58 °FClear.3 mph47%30.14 "Hg10 mi
3:53 pm62 °FSunny.5 mph39%30.14 "Hg10 mi
2:53 pm63 °FSunny.No wind37%30.15 "Hg10 mi
1:53 pm63 °FSunny.5 mph35%30.17 "Hg10 mi
12:53 pm62 °FSunny.5 mph35%30.19 "Hg10 mi
11:53 am60 °FSunny.5 mph38%30.21 "Hg10 mi
10:53 am58 °FSunny.3 mph39%30.24 "Hg10 mi
9:53 am52 °FSunny.3 mph49%30.26 "Hg10 mi
8:53 am47 °FSunny.5 mph56%30.24 "Hg10 mi
Weather by CustomWeather, © 2016

See weather overviewHow to use our weather pages